Terug naar catalogus

RADARSAT 2

ActiefWetenschapSSO
NORAD 32382·PAYLOAD·🇨🇦 Canada

Gelanceerd Dec 14, 2007 vanaf Baikonur Cosmodrome

Loading…

Volgende Passages (komende 24 uur)

TLE

VersSource: Space-Track

Epoch: Sep 14, 2026, 14:24 UTC

1 32382U 07061A   26257.60055191 -.00000087  00000-0 -16861-4 0  9994
2 32382  98.5814 263.2701 0001230  81.8494 278.2828 14.29982098978739

Volg RADARSAT 2 in realtime met AllMySat

Download on the App Store